Alpena, MI

6:22 PM EDT on May 24, 2018 (GMT -0400)
Alpena County Regional

Weather History for KAPN - June, 2013

Change the Weather History Date:

Tuesday, June 25, 2013

  Actual Average Record
Temperature  
Mean Temperature 74 °F 65 °F  
Max Temperature 84 °F 77 °F 95 °F (2003)
Min Temperature 63 °F 52 °F 34 °F (1964)
Degree Days  
Heating Degree Days 0 3  
Month to date heating degree days 136 131  
Since 1 June heating degree days 136 131  
Since 1 July heating degree days 7736 8088  
Cooling Degree Days 9 3  
Month to date cooling degree days 48 42  
Year to date cooling degree days 61 55  
Since 1 June cooling degree days 48 42  
Growing Degree Days 24 (Base 50)    
Moisture  
Dew Point 66 °F    
Average Humidity 74    
Maximum Humidity 93    
Minimum Humidity 55    
Precipitation  
Precipitation 0.06 in 0.09 in 1.56 in (1928)
Month to date precipitation 1.28 2.16  
Year to date precipitation 16.21 12.06  
Sea Level Pressure  
Sea Level Pressure 29.84 in    
Wind  
Wind Speed 3 mph (West)    
Max Wind Speed 12 mph    
Max Gust Speed 17 mph    
Visibility 10 miles    
Events Rain    
T = Trace of Precipitation, MM = Missing Value Source: NWS Daily Summary

Daily Weather History Graph

Daily Weather History Graph

Search for Another Location

Airport or City:

Astronomy

Jun. 25, 2013 Rise Set
Actual Time 5:48 AM EDT 9:25 PM EDT
Civil Twilight 5:10 AM EDT 10:02 PM EDT
Nautical Twilight 4:21 AM EDT 10:52 PM EDT
Astronomical Twilight 3:14 AM EDT 11:58 PM EDT
Moon 11:00 PM EDT (6/25) 8:34 AM EDT (6/25)
Length of Visible Light 16h 51m
Length of Day
15h 36m
Waning Gibbous, 93% of the Moon is Illuminated
Jun 25
Waning Gibbous
Jun 30
Last Quarter
Jul 8
New
Jul 15
First Quarter
Jul 22
Full

Hourly Weather History & Observations

Time (EDT) Temp. Heat Index Dew Point Humidity Pressure Visibility Wind Dir Wind Speed Gust Speed Precip Events Conditions
12:54 AM 66.0 °F - 64.0 °F 93% 29.87 in 8.0 mi Calm Calm - N/A   Clear
1:54 AM 66.9 °F - 64.0 °F 90% 29.86 in 9.0 mi Calm Calm - N/A   Clear
2:54 AM 64.9 °F - 63.0 °F 93% 29.86 in 8.0 mi Calm Calm - N/A   Clear
3:54 AM 64.0 °F - 63.0 °F 96% 29.82 in 10.0 mi Calm Calm - N/A   Clear
4:54 AM 66.0 °F - 64.0 °F 93% 29.85 in 10.0 mi WSW 3.5 mph - N/A   Clear
5:54 AM 66.0 °F - 63.0 °F 90% 29.84 in 10.0 mi WSW 3.5 mph - N/A   Clear
6:54 AM 66.0 °F - 64.0 °F 93% 29.85 in 10.0 mi Calm Calm - N/A   Mostly Cloudy
7:54 AM 69.1 °F - 64.0 °F 84% 29.86 in 10.0 mi Calm Calm - N/A   Mostly Cloudy
8:54 AM 70.0 °F - 64.9 °F 84% 29.86 in 10.0 mi SSW 4.6 mph - N/A   Mostly Cloudy
9:54 AM 69.1 °F - 66.9 °F 93% 29.86 in 2.0 mi SSW 8.1 mph - 0.03 in Rain Heavy Rain
10:12 AM 69.8 °F - 66.2 °F 88% 29.87 in 9.0 mi WSW 4.6 mph - 0.03 in Rain Light Rain
10:54 AM 70.0 °F - 66.9 °F 90% 29.85 in 10.0 mi West 8.1 mph - 0.03 in   Overcast
11:54 AM 71.1 °F - 66.0 °F 84% 29.84 in 10.0 mi WSW 4.6 mph - 0.00 in   Overcast
12:54 PM 73.9 °F - 66.9 °F 79% 29.84 in 10.0 mi West 3.5 mph - N/A   Overcast
1:54 PM 75.9 °F - 66.9 °F 74% 29.84 in 10.0 mi Calm Calm - N/A   Mostly Cloudy
2:54 PM 80.1 °F 82.3 °F 66.9 °F 64% 29.82 in 10.0 mi WNW 4.6 mph - N/A   Mostly Cloudy
3:05 PM 80.6 °F 83.2 °F 68.0 °F 65% 29.82 in 10.0 mi WNW 5.8 mph - N/A   Mostly Cloudy
3:54 PM 82.0 °F 84.9 °F 68.0 °F 62% 29.81 in 10.0 mi NW 8.1 mph - N/A   Mostly Cloudy
4:54 PM 82.0 °F 83.8 °F 64.9 °F 56% 29.81 in 10.0 mi Variable 5.8 mph - N/A   Scattered Clouds
5:54 PM 81.0 °F 83.3 °F 66.9 °F 62% 29.80 in 10.0 mi ENE 11.5 mph - N/A   Mostly Cloudy
6:54 PM 77.0 °F - 69.1 °F 76% 29.81 in 10.0 mi ESE 4.6 mph - N/A   Mostly Cloudy
7:54 PM 75.9 °F - 68.0 °F 76% 29.80 in 10.0 mi Calm Calm - N/A   Mostly Cloudy
8:54 PM 77.0 °F - 66.9 °F 71% 29.82 in 10.0 mi WNW 4.6 mph - N/A   Clear
9:54 PM 72.0 °F - 66.9 °F 84% 29.82 in 10.0 mi NNW 3.5 mph - 0.00 in   Clear
10:54 PM 70.0 °F - 66.0 °F 87% 29.84 in 10.0 mi Calm Calm - N/A   Clear
11:54 PM 68.0 °F - 64.9 °F 90% 29.83 in 10.0 mi West 3.5 mph - N/A   Clear